FW5345 Weather Reports


time (UTC)temp
C
wind
direction
speed
KPH
gust
KPH
rain 1hr
cm
rain 24hr
cm
rain mn
cm
humidity
%
barometer
mb
20260504191534 25 346 8.0 12.9 0.00 0.00 0.00 41 1011.2
20260504190037 25 357 8.0 14.5 0.00 0.00 0.00 43 1011.2
20260504184533 24 12 9.7 14.5 0.00 0.00 0.00 44 1011.3
20260504183032 24 11 9.7 14.5 0.00 0.00 0.00 45 1011.3
20260504181535 24 9 6.4 11.3 0.00 0.00 0.00 45 1011.3
20260504174531 23 338 6.4 14.5 0.00 0.00 0.00 44 1011.4
20260504173035 23 4 6.4 11.3 0.00 0.00 0.00 44 1011.3
20260504171535 22 356 4.8 9.7 0.00 0.00 0.00 46 1011.3
20260504170112 21 340 3.2 9.7 0.00 0.00 0.00 49 1011.4
20260504130109 10 157 4.8 6.4 0.00 0.00 0.00 76 1010.5
20260504120143 11 160 4.8 6.4 0.00 0.00 0.00 72 1010.5
20260504081530 12 159 4.8 6.4 0.00 0.00 0.00 64 1011.2
20260504044551 16 149 4.8 6.4 0.00 0.00 0.00 54 1010.8
20260504041540 17 153 6.4 9.7 0.00 0.00 0.00 51 1010.6
20260504040043 18 157 6.4 9.7 0.00 0.00 0.00 48 1010.3
20260504033036 20 164 6.4 9.7 0.00 0.00 0.00 46 1010.1
20260504031645 21 177 4.8 8.0 0.00 0.00 0.00 44 1009.9
20260504030106 23 167 4.8 8.0 0.00 0.00 0.00 39 1009.8
20260504024535 25 229 1.6 4.8 0.00 0.00 0.00 34 1009.8
20260504023035 26 289 0.0 3.2 0.00 0.00 0.00 32 1009.8
20260504021537 26 292 3.2 6.4 0.00 0.00 0.00 30 1010.1
20260504014534 27 297 3.2 6.4 0.00 0.00 0.00 29 1010.2
20260504013035 27 300 4.8 8.0 0.00 0.00 0.00 27 1010.2
20260504011538 27 323 3.2 8.0 0.00 0.00 0.00 25 1010.5
20260504010110 28 318 6.4 9.7 0.00 0.00 0.00 25 1010.6
20260504004535 28 335 3.2 8.0 0.00 0.00 0.00 24 1010.7
20260504003033 28 338 3.2 8.0 0.00 0.00 0.00 25 1010.8
20260504001531 28 330 6.4 12.9 0.00 0.00 0.00 25 1010.9
20260504000036 28 4 6.4 14.5 0.00 0.00 0.00 25 1011.0
20260503234535 28 5 6.4 16.1 0.00 0.00 0.00 25 1011.1
20260503233151 28 3 4.8 11.3 0.00 0.00 0.00 25 1011.3
20260503223033 28 359 6.4 22.5 0.00 0.00 0.00 27 1012.1
20260503221535 28 2 4.8 12.9 0.00 0.00 0.00 27 1012.3
20260503220036 27 73 6.4 17.7 0.00 0.00 0.00 28 1012.5
20260503213034 27 38 6.4 14.5 0.00 0.00 0.00 28 1012.8
20260503204535 27 37 8.0 19.3 0.00 0.00 0.00 27 1013.5
20260503203032 27 19 4.8 12.9 0.00 0.00 0.00 27 1013.6
20260503201536 27 82 4.8 16.1 0.00 0.00 0.00 27 1013.8
20260503200142 26 70 8.0 32.2 0.00 0.00 0.00 28 1013.9
20260503194535 26 68 9.7 25.7 0.00 0.00 0.00 28 1014.1
20260503193037 26 92 11.3 22.5 0.00 0.00 0.00 29 1014.1